Regional Weather Roundup
Issued by NWS

Home | Current Version | Previous Version | Text Only | Print | Product List | Glossary On
Versions: 1 2 3 4 5 6 7 8 9 10 11 12 13 14 15 16 17 18 19 20 21 22 23 24 25 26 27 28 29 30 31 32 33 34 35 36 37 38 39 40 41 42 43 44 45 46 47 48 49 50
000
ASCA42 TJSJ 290610
RWRPR
PUERTO RICO/U.S. VIRGIN ISLANDS HOURLY WEATHER ROUNDUP
NATIONAL WEATHER SERVICE SAN JUAN PR
200 AM AST SUN MAR 29 2015

PRZ001-004-290700-
PUERTO RICO

CITY           SKY/WX    TMP DP  RH WIND       PRES   REMARKS
SAN JUAN LMM   PTCLDY    75  70  83 SE3       30.08F
PONCE          PTCLDY    73  66  78 CALM      30.05F
CEIBA          MOCLDY    79  70  73 E8        30.10F
$$

PRZ006-007-290700-
U.S. VIRGIN ISLANDS

CITY           SKY/WX    TMP DP  RH WIND       PRES   REMARKS
CHARLOTTE AMA  PTCLDY    77  70  78 E13       30.08
$$

HOURLY WEATHER ROUNDUP FOR THE NEWS MEDIA

CITY           SKY/WX    TMP DP  RH WIND       PRES   REMARKS
ORLANDO        CLEAR     56  43  61 NW6       30.24S
NEW YORK       CLOUDY    28  15  58 NW18      30.14R WCI  15
NEWARK         CLOUDY    27  10  49 NW17G23   30.15S WCI  14
CHICAGO        PTCLDY    23  14  68 S7        30.25F WCI  15
HARTFORD       CLOUDY    30  27  88 N5        30.04R WCI  25
BOSTON         MOCLDY    28  13  53 NW14      30.06R WCI  17
DALLAS         CLEAR     66  45  45 SE10      30.01R
PHILADELPHIA   MOCLDY    27   4  37 NW13      30.21R WCI  16
LOS ANGELES    PTCLDY    59  57  93 W5        30.06R
WASHINGTON DC  CLEAR     26   3  37 NW14      30.28R WCI  14


USA.gov is the U.S. government's official web portal to all federal, state and local government web resources and services.